Location: Buchrasen
(50.2873°N, 9.7873°E)
Time: 10:05:23
(UTC+00:00)

Daily predictions for brighter satellites

Satellite Brightness Start Highest point End
(mag) Time Altitude Azimuth Time Altitude Azimuth Time Altitude Azimuth
Cosmos 836 Rocket 4.5 20:08:58 10° SSW 20:14:08 78° ESE 20:19:22 10° NNE
Cosmos 1607 4.5 20:07:56 10° NW 20:14:14 56° NE 20:20:33 10° ESE
Sich 1 3.3 20:12:12 10° N 20:16:23 53° ENE 20:20:34 10° SSE
Terra 3.5 20:22:33 10° SSW 20:26:41 30° W 20:30:50 10° NNW
Cosmos 44 Rocket 4.3 20:23:44 10° NW 20:28:37 43° WSW 20:33:21 10° S
CENTAUR R/B 2.9 20:23:33 10° SW 20:29:14 71° NW 20:36:33 10° NE
Cosmos 1758 3.2 20:27:22 10° N 20:31:02 61° ENE 20:34:41 10° SSE
Cosmos 2208 Rocket 4.0 20:30:48 10° SSW 20:36:00 84° ESE 20:41:12 10° NNE
BREEZE-M DEB (TANK) 1.5 20:35:09 10° W 20:37:37 65° S 20:39:39 10° ESE
SPOT 3 Rocket 3.6 20:34:29 10° SSE 20:39:37 88° WSW 20:44:49 10° NNW
YAOGAN 11 4.3 20:37:54 10° NNE 20:42:22 78° WNW 20:46:47 10° SSW
Cosmos 2227 4.3 20:40:15 10° SSW 20:46:00 89° ESE 20:51:48 10° NNE
Okean 3 Rocket 3.6 20:42:09 10° N 20:46:38 88° W 20:51:02 10° S
Cosmos 724 4.3 20:41:40 10° NW 20:47:31 87° NE 20:52:53 12° SE
Ariane Rocket 3.0 20:44:11 10° SSE 20:49:16 87° ENE 20:54:23 10° NNW
IRS-1C Rocket 4.1 20:44:32 10° SSE 20:49:49 87° ENE 20:55:06 10° NNW
Okean-O 3.9 20:46:30 10° SSW 20:50:32 36° W 20:54:36 10° NNW
Cosmos 1805 Rocket 3.6 20:48:36 10° N 20:52:55 69° ENE 20:56:46 13° SSE
Cosmos 1340 Rocket 2.8 20:52:32 10° NNW 20:56:19 71° W 20:59:47 11° S
NOSS 3-2 (A) 3.1 20:51:46 10° SW 20:56:48 79° SE 21:02:56 10° NE
Cosmos 1408 Rocket 3.6 20:52:40 10° N 20:57:05 77° ENE 21:01:00 13° SSE
USA 215 3.3 20:50:55 10° ESE 20:57:27 85° NNE 21:04:01 10° WNW
Cosmos 1842 Rocket 4.3 20:54:04 10° SSW 20:58:25 56° WNW 21:02:49 10° N
Cosmos 1603 4.1 20:52:47 10° NW 20:58:27 60° WSW 21:03:42 12° S
Cosmos 1743 Rocket 3.8 21:00:12 10° N 21:04:27 54° ENE 21:07:49 16° SSE
Cosmos 1703 3.5 21:04:34 17° SSE 21:06:32 36° E 21:09:29 10° NNE
USA 245 4.0 21:03:23 10° S 21:06:57 39° WSW 21:09:56 10° NNW
Cosmos 1844 Rocket 3.1 21:02:56 10° SW 21:08:29 66° WNW 21:14:03 10° NNE
Meteor 1-22 Rocket 4.4 21:04:05 10° N 21:09:20 55° ENE 21:13:31 16° SSE
SL-14 R/B 4.0 21:07:38 10° SSW 21:11:15 49° WNW 21:14:53 10° N
Cosmos 1553 Rocket 4.0 21:07:46 10° S 21:14:09 79° E 21:20:29 10° NNE
CZ-4C R/B 4.1 21:08:34 10° WNW 21:14:55 34° WSW 21:22:25 10° S
Cosmos 1833 Rocket 3.0 21:12:41 10° NNW 21:18:17 60° NE 21:22:56 15° SE
Cosmos 1151 Rocket 3.1 21:14:35 10° S 21:18:56 84° W 21:23:17 10° N
Cosmos 2082 Rocket 4.2 21:18:54 10° NNW 21:23:12 22° NE 21:27:27 10° E
CZ-2C R/B 2.2 21:23:48 21° S 21:25:25 58° WSW 21:28:09 10° NNW
Cosmos 1953 2.3 21:23:56 10° N 21:27:28 55° ENE 21:29:35 22° SSE
SL-24 R/B - RUBIN 2 4.5 21:24:51 10° WSW 21:29:14 52° NW 21:33:30 10° NE
CZ-4B R/B 4.3 21:24:45 11° S 21:29:23 47° W 21:34:24 10° NNW
Okean O Rocket 4.1 21:27:35 10° SW 21:30:16 16° W 21:32:58 10° NW
Cosmos 2278 Rocket 4.0 21:28:07 12° ESE 21:30:18 15° E 21:33:18 10° ENE
Cosmos 1633 Rocket 3.6 21:31:07 10° N 21:35:22 47° ENE 21:38:07 20° SE
NOSS 3-2 (C) 3.1 21:33:13 10° SSW 21:38:11 64° SE 21:44:10 10° NE
Cosmos 1461 4.4 21:40:52 10° WNW 21:43:24 19° WSW 21:45:06 14° SSW
NOSS 2-3 (C) 3.5 21:42:37 24° S 21:44:07 37° SE 21:47:26 10° NE
Cosmos 1745 Rocket 4.0 21:40:00 10° N 21:46:17 90° SW 21:51:04 19° S
Cosmos 2056 Rocket 4.4 21:44:41 10° NNW 21:49:29 39° ENE 21:53:26 14° ESE
Helios 1A 2.9 21:51:20 10° NNE 21:55:15 62° ESE 21:57:27 24° S
Cosmos 2344 3.7 21:49:06 10° SSW 21:56:39 49° ESE 22:03:29 10° NE
GP-B 4.1 21:53:30 10° N 21:57:39 43° W 22:01:23 12° SSW
Helios 1B rocket 2.4 21:57:42 26° SE 21:59:22 52° ENE 22:02:45 10° N
Iridium 4 Rocket 3.9 21:55:05 14° SSW 21:59:48 60° W 22:04:48 10° N
ARIANE 5 R/B 3.3 21:59:12 20° SE 22:01:58 45° ENE 22:06:12 10° N
Cosmos 1470 Rocket 3.7 22:02:47 10° N 22:07:14 66° ENE 22:09:41 25° SSE
Okean 2 3.8 22:07:04 27° SE 22:08:37 41° E 22:12:15 10° NNE
Cosmos 1241 Rocket 4.4 22:03:15 10° SSW 22:09:24 76° SE 22:15:40 10° NE
Cosmos 1420 Rocket 4.0 22:04:43 10° NNW 22:09:59 88° WSW 22:13:10 24° SSE
NOSS 2-3 (D) 3.2 22:07:40 10° SW 22:11:22 81° NW 22:15:16 10° NE
ALOS 2 3.1 22:11:55 22° SE 22:14:28 50° ENE 22:18:44 10° N
Cosmos 1538 Rocket 4.2 22:11:36 12° SSW 22:16:29 73° WNW 22:21:45 10° NNE
Cosmos 2315 Rocket 4.0 22:13:38 19° S 22:18:14 87° E 22:24:29 10° N
Cosmos 1943 Rocket 2.7 22:16:33 24° SSE 22:19:34 43° ESE 22:24:52 10° NE
Meteor 1-21 4.2 22:18:13 22° S 22:21:59 81° E 22:27:40 10° NNE
Cosmos 923 Rocket 4.0 22:21:15 23° S 22:24:28 64° ESE 22:29:39 10° NNE
CZ-2C R/B 3.8 22:22:31 10° NNE 22:27:13 68° ESE 22:29:46 26° S
Cosmos 1328 Rocket 3.9 22:24:40 20° SSW 22:27:33 62° WNW 22:31:52 10° N
Cosmos 2112 Rocket 4.4 22:28:53 26° SSE 22:31:23 45° ESE 22:36:19 10° NE
Lacrosse 5 rocket 1.0 22:30:44 33° SSW 22:31:56 50° SE 22:35:21 10° ENE
CZ-2C R/B 3.6 22:31:43 15° SE 22:35:26 38° ENE 22:40:15 10° N
USA 81 4.1 22:32:37 10° N 22:37:54 73° E 22:40:53 26° SSE
NOSS 2-3 (E) 4.2 22:35:32 10° WSW 22:39:04 47° NW 22:42:53 10° NE
Cosmos 1371 Rocket 4.0 22:35:18 10° NNW 22:40:36 87° ENE 22:43:38 26° SSE
USA 215 3.9 22:37:29 23° S 22:40:54 38° SW 22:46:55 10° WNW
PSLV R/B 3.9 22:37:55 10° NNE 22:42:31 58° E 22:44:44 29° S
Cosmos 1869 Rocket 3.9 22:42:23 10° N 22:46:37 54° ENE 22:48:44 27° SE
GEOS 3 Rocket 3.9 22:45:16 26° SSE 22:48:09 55° SW 22:53:28 10° NW
MetOp-A 3.8 22:53:36 26° SE 22:55:32 53° ENE 22:59:17 10° N
NOSS 2-1 (D) 3.6 22:55:58 35° SE 22:56:13 35° SE 22:59:07 10° ENE
Cosmos 1515 Rocket 3.6 22:55:38 28° SSW 22:57:53 72° WNW 23:02:14 10° N
Cosmos 2154 Rocket 4.1 22:51:43 10° N 22:57:56 73° ENE 23:01:51 24° SSE
Cosmos 2184 Rocket 4.0 22:52:41 10° N 22:58:58 80° E 23:02:54 25° SSE
NOSS 2-1 (C) 3.8 22:59:06 32° SE 22:59:15 32° SE 23:02:06 10° ENE
Cosmos 1833 Rocket 4.0 22:57:09 10° NW 23:01:49 27° WSW 23:04:36 18° SW
Spot 4 4.2 22:59:30 27° SSW 23:01:55 53° W 23:06:40 10° NNW
USA 59 Rocket -0.4 23:01:29 43° SSE 23:02:00 47° SE 23:04:56 10° NE
Cosmos 1733 Rocket 4.1 23:02:41 10° N 23:06:40 36° ENE 23:09:08 20° SE
SAR-Lupe-2 3.2 23:05:49 45° SSE 23:06:43 90° E 23:09:58 10° NNW
Cosmos 2082 Rocket 2.2 23:02:28 10° NNW 23:08:09 83° ENE 23:11:51 22° SSE
Okean 3 3.3 23:09:18 33° SSW 23:10:59 79° W 23:15:00 10° N
Cosmos 2278 Rocket 2.1 23:09:54 24° SSW 23:13:26 81° ESE 23:19:08 10° NNE
Cosmos 1331 Rocket 4.0 23:15:15 10° NNW 23:20:26 81° ENE 23:23:34 24° SSE
Okean 1-7 4.0 23:20:00 24° SE 23:21:47 34° E 23:25:36 10° NNE
Cosmos 1400 Rocket 3.5 23:20:56 10° NNW 23:24:22 37° W 23:25:30 29° SW
COSMOS 2406 3.7 23:20:46 10° NNW 23:26:26 59° NE 23:31:27 13° SE
Cosmos 1680 Rocket 3.9 23:22:43 18° SW 23:26:27 58° WNW 23:31:36 10° NNE
CZ-2C R/B 3.1 23:20:56 10° NNE 23:26:35 88° ESE 23:29:38 27° SSW
Cosmos 494 Rocket 4.2 23:24:38 21° SW 23:28:09 66° WNW 23:33:24 10° NNE
Cosmos 2056 Rocket 4.3 23:26:51 10° NW 23:31:28 35° WSW 23:33:39 24° SSW
Helios 1B rocket 4.3 23:31:35 12° WSW 23:32:36 13° W 23:34:19 10° WNW
Cosmos 1048 Rocket 4.0 23:31:19 28° S 23:34:05 74° ESE 23:39:21 10° NNE
Cosmos 1328 3.4 23:35:16 40° S 23:36:25 78° E 23:39:59 10° NNE
Cosmos 1812 3.9 23:35:16 10° NW 23:35:32 12° NW 23:35:32 12° NW
ARIANE 5 R/B 4.2 23:36:34 18° SW 23:38:27 24° W 23:42:04 10° NW
ACS3 Solar Sail 1.9 23:34:08 10° NNE 23:39:47 58° E 23:43:11 25° S
USA 238 DEB 3.6 23:36:16 14° SW 23:41:43 80° NW 23:48:37 10° NE
USA 238 3.6 23:36:31 14° SW 23:41:56 80° NW 23:48:50 10° NE
Lacrosse 4 Rocket 4.1 23:39:32 10° N 23:42:35 19° NE 23:45:38 10° E
Geosat 4.1 23:42:07 10° NE 23:47:06 62° ESE 23:49:42 28° S
Cosmos 546 4.4 23:46:23 10° WSW 23:50:10 82° SSE 23:53:58 10° E
BREEZE-M DEB (TANK) 3.1 23:39:07 10° W 23:50:29 79° SSW 23:54:10 10° ESE
ALOS 2 4.3 23:49:18 17° WSW 23:51:05 21° W 23:54:25 10° NW
SWAS 4.2 23:52:23 33° SSW 23:54:06 78° ESE 23:58:11 10° NNE
TIMED 4.4 23:53:01 31° SSW 23:55:02 87° WNW 23:59:19 10° NNE
Cosmos 1441 Rocket 4.2 23:54:17 22° WSW 23:55:33 29° WNW 23:58:26 10° N
